{"data":{"norad_id":60383,"epoch":"2026-05-25T03:19:11.254080Z","epoch_age_seconds":63340,"freshness":"FRESH","line1":"1 60383U 24140E   26145.13832470  .00000087  00000+0  11493-3 0  9992","line2":"2 60383  88.9692 282.2838 0017264  99.8773 260.4328 13.51008485 89366","mean_motion":13.51008485,"eccentricity":0.0017264,"inclination_deg":88.9692,"raan_deg":282.2838,"arg_perigee_deg":99.8773,"mean_anomaly_deg":260.4328,"bstar":0.00011493,"rev_number":8936,"period_min":106.58704338189,"perigee_km":1055.6944446967,"apogee_km":1081.4063669715,"semimajor_km":7446.6874058341,"source":"CELESTRAK","updated_at":"2026-05-25T13:38:02.039822Z"}}